Weather History for KPOB - June, 2014

Change the Weather History Date:

Friday, June 6, 2014

  Actual Average Record
Temperature  
Mean Temperature 79 °F -  
Max Temperature 87 °F 84 °F 99 °F (2008)
Min Temperature 69 °F 64 °F 53 °F (1991)
Cooling Degree Days 14    
Growing Degree Days 29 (Base 50)    
Moisture  
Dew Point 68 °F    
Average Humidity 76    
Maximum Humidity 94    
Minimum Humidity 48    
Precipitation  
Precipitation 0.00 in - - ()
Sea Level Pressure  
Sea Level Pressure 29.89 in    
Wind  
Wind Speed 5 mph (NE)    
Max Wind Speed 10 mph    
Max Gust Speed -    
Visibility 10 miles    
Events      
Averages and records for this station are not official NWS values.
T = Trace of Precipitation, MM = Missing Value Source: NWS Daily Summary

Daily Weather History Graph

Daily Weather History Graph

Search for Another Location

Airport or City:

Trip Planner

Search our weather history database for the weather conditions in past years. The results will help you decide how hot, cold, wet, or windy it might be!

Date:

Astronomy

Jun. 06, 2014 Rise Set
Actual Time 6:01 AM EDT 8:28 PM EDT
Civil Twilight 5:32 AM EDT 8:57 PM EDT
Nautical Twilight 4:55 AM EDT 9:34 PM EDT
Astronomical Twilight 4:15 AM EDT 10:14 PM EDT
Moon 1:59 PM EDT (6/6) 1:37 AM EDT (6/6)
Length of Visible Light 15h 25m
Length of Day
14h 26m
First Quarter, 58% of the Moon is Illuminated
Jun 6
First Quarter
Jun 13
Full
Jun 19
Last Quarter
Jun 27
New
Jul 5
First Quarter

Hourly Weather History & Observations

Time (EDT) Temp. Heat Index Dew Point Humidity Pressure Visibility Wind Dir Wind Speed Gust Speed Precip Events Conditions
12:58 AM 73.2 °F - 67.3 °F 82% 29.83 in 10.0 mi ENE 4.6 mph - N/A   Clear
1:58 AM 74.1 °F - 65.8 °F 75% 29.82 in 10.0 mi NNE 4.6 mph - N/A   Clear
2:38 AM 71.6 °F - 66.2 °F 83% 29.82 in 10.0 mi East 3.5 mph - N/A   Mostly Cloudy
2:47 AM 71.6 °F - 66.2 °F 83% 29.83 in 10.0 mi NE 2.3 mph - N/A   Mostly Cloudy
2:58 AM 72.7 °F - 66.6 °F 81% 29.83 in 10.0 mi North 2.3 mph - N/A   Overcast
3:43 AM 73.4 °F - 68.0 °F 83% 29.83 in 10.0 mi North 3.5 mph - N/A   Overcast
3:58 AM 73.0 °F - 66.7 °F 81% 29.84 in 10.0 mi North 4.6 mph - N/A   Overcast
4:03 AM 73.4 °F - 66.2 °F 78% 29.84 in 10.0 mi North 4.6 mph - N/A   Overcast
4:08 AM 73.4 °F - 68.0 °F 83% 29.84 in 10.0 mi North 5.8 mph - N/A   Overcast
4:28 AM 73.4 °F - 66.2 °F 78% 29.85 in 10.0 mi North 5.8 mph - N/A   Overcast
4:53 AM 73.4 °F - 66.2 °F 78% 29.86 in 9.0 mi North 6.9 mph - N/A   Overcast
4:58 AM 72.7 °F - 66.7 °F 82% 29.86 in 9.0 mi North 5.8 mph - N/A   Overcast
5:27 AM 71.6 °F - 68.0 °F 88% 29.87 in 9.0 mi NNE 5.8 mph - N/A   Overcast
5:42 AM 71.6 °F - 69.8 °F 94% 29.88 in 8.0 mi NNE 4.6 mph - N/A   Overcast
5:47 AM 71.6 °F - 69.8 °F 94% 29.88 in 8.0 mi NNE 6.9 mph - N/A   Overcast
5:57 AM 71.6 °F - 69.8 °F 94% 29.88 in 7.0 mi NE 8.1 mph - N/A   Overcast
5:58 AM 71.4 °F - 69.3 °F 93% 29.88 in 7.0 mi NE 8.1 mph - N/A   Overcast
6:58 AM 71.8 °F - 69.8 °F 93% 29.88 in 10.0 mi ENE 6.9 mph - N/A   Overcast
7:18 AM 71.6 °F - 69.8 °F 94% 29.89 in 10.0 mi East 5.8 mph - N/A   Overcast
7:58 AM 72.9 °F - 69.8 °F 90% 29.91 in 10.0 mi ENE 8.1 mph - N/A   Overcast
8:23 AM 73.4 °F - 69.8 °F 88% 29.91 in 10.0 mi ENE 5.8 mph - N/A   Overcast
8:43 AM 73.4 °F - 69.8 °F 88% 29.92 in 10.0 mi NE 5.8 mph - N/A   Overcast
8:53 AM 73.4 °F - 69.8 °F 88% 29.92 in 10.0 mi Variable 5.8 mph - N/A   Overcast
8:58 AM 74.1 °F - 69.4 °F 85% 29.93 in 10.0 mi ENE 6.9 mph - N/A   Overcast
9:38 AM 77.0 °F - 68.0 °F 74% 29.91 in 10.0 mi ENE 9.2 mph - N/A   Mostly Cloudy
9:53 AM 77.0 °F - 68.0 °F 74% 29.91 in 10.0 mi NE 8.1 mph - N/A   Mostly Cloudy
9:58 AM 77.0 °F - 68.7 °F 75% 29.91 in 10.0 mi East 6.9 mph - N/A   Mostly Cloudy
10:24 AM 77.0 °F - 68.0 °F 74% 29.92 in 10.0 mi NE 4.6 mph - N/A   Mostly Cloudy
10:29 AM 77.0 °F - 68.0 °F 74% 29.92 in 10.0 mi Variable 2.3 mph - N/A   Mostly Cloudy
10:58 AM 79.9 °F - 68.7 °F 69% 29.93 in 10.0 mi Variable 1.2 mph - N/A   Scattered Clouds
11:43 AM 78.8 °F - 68.0 °F 69% 29.91 in 10.0 mi Variable 2.3 mph - N/A   Mostly Cloudy
11:58 AM 80.6 °F 83.2 °F 67.6 °F 65% 29.91 in 10.0 mi NNE 5.8 mph - N/A   Overcast
12:08 PM 80.6 °F 83.2 °F 68.0 °F 65% 29.91 in 10.0 mi Variable 3.5 mph - N/A   Overcast
12:58 PM 82.4 °F 85.2 °F 67.6 °F 61% 29.91 in 10.0 mi Variable 2.3 mph - N/A   Mostly Cloudy
1:58 PM 84.2 °F 87.1 °F 67.5 °F 57% 29.90 in 10.0 mi NE 6.9 mph - N/A   Mostly Cloudy
2:58 PM 86.0 °F 87.9 °F 65.7 °F 50% 29.89 in 10.0 mi Variable 4.6 mph - N/A   Scattered Clouds
3:58 PM 87.1 °F 88.9 °F 64.9 °F 48% 29.88 in 10.0 mi NNE 8.1 mph - N/A   Partly Cloudy
4:58 PM 86.2 °F 87.9 °F 65.1 °F 49% 29.89 in 10.0 mi NE 8.1 mph - N/A   Mostly Cloudy
5:58 PM 84.4 °F 86.1 °F 64.9 °F 52% 29.88 in 10.0 mi NE 10.4 mph - N/A   Clear
6:58 PM 82.4 °F 84.2 °F 65.1 °F 56% 29.91 in 10.0 mi ENE 9.2 mph - N/A   Clear
7:58 PM 81.3 °F 83.2 °F 65.5 °F 58% 29.91 in 10.0 mi East 5.8 mph - N/A   Mostly Cloudy
8:58 PM 79.7 °F - 65.7 °F 62% 29.94 in 10.0 mi ESE 6.9 mph - N/A   Partly Cloudy
9:58 PM 76.1 °F - 67.6 °F 75% 29.95 in 10.0 mi SSE 4.6 mph - N/A   Clear
10:58 PM 74.8 °F - 66.7 °F 76% 29.96 in 10.0 mi East 4.6 mph - N/A   Clear
11:58 PM 69.8 °F - 65.7 °F 87% 29.97 in 10.0 mi SE 3.5 mph - N/A   Clear